[[{"header":{"parameterUnit":"m.s-1","parameterCategory":1,"la1":30.2991,"la2":30.254,"lo1":-89.0895,"lo2":-89.0444,"dy":0.0017,"dx":0.0017,"nx":28,"ny":28,"refTime":"2025-12-16T03:00:00:Z","depth":0,"parameterNumber":2,"parameterNumberName":"U-component_of_WINDS"},"data":[0,0,0,0,0,0,0,0,0,0,0,0,0,0,0,0,0,0,0,0,0,0,0,0,0,0,0,0,0,0,0,0,0,0,0,0,0,0,0,0,0,0,0,0,0,0,0,0,0,0,0,0,0,0,0,0,0,0,-1.1822,-1.1821,0,-1.1814,-1.1814,-1.1814,-1.1784,-1.1783,-1.1782,-1.1781,-1.1775,-1.1776,-1.1776,0,0,0,0,0,0,0,0,0,0,0,0,0,-1.181,-1.1811,-1.1822,-1.1821,-1.1821,-1.1814,-1.1814,-1.1814,-1.1784,-1.1783,-1.1782,-1.1781,-1.1775,-1.1776,-1.1776,0,0,0,0,0,0,0,0,0,0,0,0,0,-1.181,-1.1811,-1.1822,-1.1805,-1.1804,-1.1814,-1.1814,-1.1814,-1.1784,-1.1783,-1.1782,-1.1781,-1.1775,-1.1776,-1.1777,-1.1802,0,0,-1.1779,-1.1779,0,0,0,0,0,0,0,0,-1.1811,-1.1811,-1.1808,-1.1806,-1.1805,-1.1799,-1.1808,-1.181,-1.1784,-1.1792,-1.1781,-1.178,-1.1784,-1.1784,-1.1785,-1.1802,-1.1802,-1.1779,-1.1779,-1.178,-1.178,0,0,0,0,0,0,0,-1.1811,-1.1811,-1.1819,-1.1808,-1.1806,-1.1799,-1.1798,-1.1808,-1.1794,-1.1791,-1.1789,-1.1788,-1.1783,-1.1784,-1.1785,-1.1802,-1.1779,-1.178,-1.178,-1.178,-1.184,-1.1841,0,0,0,0,0,0,-1.1813,-1.1811,-1.1819,-1.1818,-1.1805,-1.18,-1.1799,-1.1802,-1.1794,-1.1791,-1.1789,-1.1787,-1.1784,-1.1784,-1.1784,-1.1814,-1.178,-1.178,-1.1781,-1.1839,-1.184,-1.1841,0,0,0,0,0,0,-1.1813,-1.1814,-1.1819,-1.1814,-1.1814,-1.1801,-1.1805,-1.1802,-1.1803,-1.1792,-1.179,-1.1793,-1.1783,-1.1783,-1.1798,-1.1814,-1.1781,-1.1781,-1.1837,-1.1839,-1.1841,-1.1875,0,0,0,0,0,0,-1.1812,-1.1814,-1.1823,-1.1815,-1.1815,-1.1833,-1.1806,-1.1803,-1.1805,-1.1802,-1.1795,-1.1793,-1.1782,-1.1797,-1.1799,-1.1814,-1.1782,-1.1836,-1.1838,-1.184,-1.1872,-1.1878,-1.1882,0,0,0,0,0,-1.1812,-1.1834,-1.1824,-1.1825,-1.1826,-1.1834,-1.1834,-1.182,-1.1806,-1.1816,-1.1808,-1.1793,-1.1812,-1.1799,-1.1801,-1.1817,-1.1835,-1.1838,-1.184,-1.187,-1.1876,-1.1882,0,0,0,0,0,0,-1.1845,-1.1832,-1.1821,-1.1841,-1.1838,-1.1829,-1.1841,-1.1827,-1.183,-1.1827,-1.181,-1.1809,-1.1826,-1.1823,-1.1809,-1.1841,-1.1821,-1.1824,-1.1843,-1.1849,-1.1854,-1.1855,-1.1783,0,0,0,0,0,-1.1855,-1.1861,-1.185,-1.1868,-1.1867,-1.1854,-1.1857,-1.1846,-1.1844,-1.1843,-1.1837,-1.1835,-1.184,-1.1844,-1.1848,-1.1871,-1.187,-1.1883,-1.1888,-1.1892,-1.1895,-1.1907,-1.1913,-1.185,-1.185,-1.185,0,0,-1.1874,-1.1868,-1.1874,-1.1874,-1.1871,-1.1879,-1.1854,-1.1863,-1.1869,-1.1844,-1.1858,-1.1853,-1.185,-1.1869,-1.1877,-1.1867,-1.1912,-1.1895,-1.1898,-1.1899,-1.191,-1.1916,-1.1922,-1.1851,-1.1851,-1.1851,0,0,-1.1915,-1.191,-1.1925,-1.1922,-1.1918,-1.1909,-1.1913,-1.1905,-1.19,-1.1914,-1.1895,-1.1902,-1.1911,-1.191,-1.1911,-1.195,-1.1936,-1.1951,-1.1977,-1.1989,-1.1994,-1.1999,-1.2013,-1.2019,-1.1954,-1.1954,-1.1955,0,-1.194,-1.1951,-1.1934,-1.1945,-1.1946,-1.1923,-1.1938,-1.1937,-1.1934,-1.1936,-1.1924,-1.1935,-1.1931,-1.195,-1.1959,-1.196,-1.1964,-1.1953,-1.1995,-1.1999,-1.2003,-1.2017,-1.2022,-1.1956,-1.1956,-1.1956,-1.1956,0,-1.1983,-1.199,-1.2003,-1.2,-1.2002,-1.2015,-1.2001,-1.2005,-1.1994,-1.1987,-1.2,-1.1995,-1.1998,-1.2001,-1.1991,-1.2018,-1.2012,-1.1998,-1.1977,-1.2011,-1.2024,-1.2029,-1.1959,-1.1958,-1.1958,-1.1957,0,0,-1.2045,-1.2032,-1.2037,-1.2036,-1.2029,-1.2035,-1.2046,-1.2049,-1.2053,-1.2052,-1.2062,-1.2069,-1.2056,-1.2057,-1.2046,-1.2056,-1.2088,-1.204,-1.204,-1.205,-1.2119,-1.213,-1.2137,-1.2078,-1.2079,-1.208,-1.2119,0,-1.2084,-1.2103,-1.2088,-1.211,-1.2117,-1.2095,-1.2105,-1.2102,-1.2095,-1.21,-1.2092,-1.2099,-1.208,-1.208,-1.2089,-1.2082,-1.2102,-1.2079,-1.2088,-1.2089,-1.2091,-1.2143,-1.2156,-1.2193,-1.2124,-1.2125,-1.2125,0,-1.2132,-1.2133,-1.2155,-1.2147,-1.2149,-1.2158,-1.2159,-1.2164,-1.216,-1.2154,-1.2155,-1.2141,-1.2152,-1.2131,-1.2146,-1.2131,-1.2134,-1.2131,-1.2132,-1.2133,-1.211,-1.2147,-1.2204,-1.221,-1.2133,-1.2132,-1.2132,0,-1.2177,-1.2183,-1.2197,-1.2196,-1.2186,-1.2193,-1.219,-1.2185,-1.2187,-1.2187,-1.2189,-1.2191,-1.2192,-1.2194,-1.2182,-1.2167,-1.2199,-1.2176,-1.2195,-1.2195,-1.2204,-1.2204,-1.2264,-1.2204,-1.2204,-1.2204,-1.2203,0,-1.2223,-1.2237,-1.2217,-1.2226,-1.2241,-1.2224,-1.224,-1.2234,-1.223,-1.2238,-1.2218,-1.2226,-1.2208,-1.2214,-1.2204,-1.2219,-1.2219,-1.2215,-1.2213,-1.2218,-1.2218,-1.222,-1.2218,-1.2205,-1.2205,-1.2204,-1.2204,0,-1.2275,-1.2262,-1.2276,-1.2265,-1.2262,-1.2275,-1.2266,-1.2274,-1.2265,-1.2275,-1.2276,-1.2262,-1.2268,-1.2255,-1.2259,-1.2253,-1.2274,-1.2266,-1.2275,-1.2273,-1.2293,-1.2292,-1.2357,-1.2365,-1.2299,-1.23,-1.23,0,-1.2306,-1.2317,-1.2307,-1.231,-1.2307,-1.2313,-1.2315,-1.2298,-1.2301,-1.2297,-1.2306,-1.231,-1.2312,-1.2323,-1.2314,-1.2317,-1.231,-1.2332,-1.231,-1.2315,-1.2311,-1.2311,-1.2313,-1.2338,-1.2338,-1.2339,-1.234,0,-1.2363,-1.2355,-1.2358,-1.2359,-1.2362,-1.2362,-1.236,-1.2364,-1.2346,-1.235,-1.2356,-1.2358,-1.2361,-1.2366,-1.2367,-1.2363,-1.2349,-1.2346,-1.2351,-1.2357,-1.2362,-1.236,-1.2289,-1.2345,-1.2345,-1.2344,-1.2344,-1.2344,-1.2406,-1.2415,-1.2409,-1.2413,-1.241,-1.2409,-1.2416,-1.2407,-1.2411,-1.2413,-1.2402,-1.241,-1.2406,-1.2405,-1.2403,-1.2409,-1.2399,-1.2406,-1.2408,-1.241,-1.2414,-1.236,-1.2409,-1.2409,-1.2409,-1.2409,-1.2409,0,-1.2462,-1.2457,-1.2461,-1.2459,-1.2462,-1.2447,-1.2445,-1.2449,-1.2456,-1.2452,-1.2455,-1.2461,-1.2465,-1.2456,-1.2459,-1.2466,-1.2459,-1.2467,-1.2467,-1.2467,-1.2422,-1.2418,-1.2472,-1.2472,-1.2472,-1.2472,-1.2472,-1.2472,-1.2492,-1.2506,-1.2498,-1.251,-1.2504,-1.2511,-1.2511,-1.251,-1.2508,-1.2515,-1.2519,-1.2512,-1.2507,-1.2509,-1.2512,-1.2509,-1.2512,-1.2522,-1.2517,-1.2476,-1.247,-1.2464,-1.246,-1.2522,-1.2523,-1.2561,-1.2562,-1.2562]},{"header":{"parameterUnit":"m.s-1","parameterCategory":1,"la1":30.2991,"la2":30.254,"lo1":-89.0895,"lo2":-89.0444,"dy":0.0017,"dx":0.0017,"nx":28,"ny":28,"refTime":"2025-12-16T03:00:00:Z","depth":0,"parameterNumber":3,"parameterNumberName":"V-component_of_WINDS"},"data":[0,0,0,0,0,0,0,0,0,0,0,0,0,0,0,0,0,0,0,0,0,0,0,0,0,0,0,0,0,0,0,0,0,0,0,0,0,0,0,0,0,0,0,0,0,0,0,0,0,0,0,0,0,0,0,0,0,0,-2.7734,-2.7735,0,-2.7762,-2.7762,-2.7763,-2.7747,-2.7746,-2.7745,-2.7744,-2.777,-2.7771,-2.7773,0,0,0,0,0,0,0,0,0,0,0,0,0,-2.7666,-2.7667,-2.7734,-2.7735,-2.7735,-2.7762,-2.7762,-2.7763,-2.7747,-2.7746,-2.7745,-2.7744,-2.7769,-2.7771,-2.7773,0,0,0,0,0,0,0,0,0,0,0,0,0,-2.7695,-2.7667,-2.7734,-2.773,-2.773,-2.7762,-2.7762,-2.7763,-2.7747,-2.7746,-2.7745,-2.7743,-2.7769,-2.7771,-2.7773,-2.7809,0,0,-2.7779,-2.778,0,0,0,0,0,0,0,0,-2.7693,-2.7697,-2.7731,-2.7731,-2.7731,-2.775,-2.7748,-2.7778,-2.7747,-2.774,-2.7744,-2.7743,-2.7764,-2.7766,-2.7774,-2.781,-2.7812,-2.778,-2.7781,-2.7782,-2.7782,0,0,0,0,0,0,0,-2.7691,-2.7696,-2.7745,-2.7731,-2.7731,-2.7727,-2.7729,-2.7753,-2.7758,-2.7741,-2.774,-2.7744,-2.7764,-2.7772,-2.7774,-2.7812,-2.778,-2.7781,-2.7783,-2.7784,-2.7881,-2.7882,0,0,0,0,0,0,-2.769,-2.7694,-2.7744,-2.7746,-2.7709,-2.7729,-2.7732,-2.7745,-2.7758,-2.7759,-2.7744,-2.7743,-2.7769,-2.7772,-2.7775,-2.782,-2.7782,-2.7784,-2.7785,-2.7879,-2.7881,-2.7882,0,0,0,0,0,0,-2.7688,-2.7694,-2.7743,-2.772,-2.7726,-2.7731,-2.7746,-2.7746,-2.7754,-2.7761,-2.7761,-2.7752,-2.7768,-2.7772,-2.7801,-2.782,-2.7785,-2.7787,-2.7878,-2.788,-2.7882,-2.7909,0,0,0,0,0,0,-2.7686,-2.7694,-2.7708,-2.772,-2.7727,-2.777,-2.7747,-2.7747,-2.7758,-2.7756,-2.7768,-2.7769,-2.7768,-2.7798,-2.7804,-2.7823,-2.7788,-2.7876,-2.7879,-2.7881,-2.7906,-2.7911,-2.7916,0,0,0,0,0,-2.7684,-2.7714,-2.7709,-2.7715,-2.7745,-2.7771,-2.7775,-2.7773,-2.776,-2.7774,-2.7778,-2.7769,-2.7817,-2.7801,-2.7807,-2.7827,-2.7875,-2.7878,-2.7881,-2.7904,-2.791,-2.7916,0,0,0,0,0,0,-2.7702,-2.7715,-2.771,-2.7745,-2.7757,-2.7768,-2.7786,-2.778,-2.7795,-2.7792,-2.7789,-2.7792,-2.7823,-2.7827,-2.781,-2.7864,-2.7844,-2.7848,-2.786,-2.7866,-2.787,-2.7869,-2.779,0,0,0,0,0,-2.7711,-2.7731,-2.7741,-2.777,-2.7777,-2.7781,-2.7791,-2.779,-2.7802,-2.7806,-2.7813,-2.7824,-2.7842,-2.7854,-2.787,-2.7906,-2.7909,-2.7923,-2.7928,-2.7932,-2.7936,-2.7956,-2.7963,-2.7892,-2.7892,-2.7892,0,0,-2.7728,-2.7737,-2.775,-2.7775,-2.7784,-2.7805,-2.7785,-2.7807,-2.7823,-2.7809,-2.7838,-2.7843,-2.7855,-2.7888,-2.7903,-2.7893,-2.7956,-2.7935,-2.7939,-2.794,-2.796,-2.7967,-2.7972,-2.7894,-2.7894,-2.7893,0,0,-2.777,-2.7779,-2.7805,-2.7815,-2.783,-2.7832,-2.7838,-2.7851,-2.7854,-2.7883,-2.7873,-2.7891,-2.7922,-2.7931,-2.794,-2.7987,-2.7979,-2.7992,-2.8018,-2.8038,-2.8043,-2.8048,-2.8066,-2.8073,-2.7996,-2.7996,-2.7996,0,-2.7789,-2.7821,-2.7819,-2.7843,-2.7855,-2.7844,-2.7871,-2.788,-2.7899,-2.7907,-2.7896,-2.7936,-2.7943,-2.7979,-2.799,-2.7997,-2.8005,-2.7991,-2.8043,-2.8048,-2.8052,-2.8069,-2.8076,-2.7998,-2.7998,-2.7997,-2.7997,0,-2.7844,-2.7867,-2.7886,-2.7906,-2.7919,-2.7945,-2.7947,-2.796,-2.7957,-2.796,-2.799,-2.7999,-2.8018,-2.8026,-2.8022,-2.8061,-2.8055,-2.8043,-2.8024,-2.8061,-2.8077,-2.8083,-2.8,-2.8,-2.7999,-2.7999,0,0,-2.7899,-2.7919,-2.7926,-2.7936,-2.7951,-2.7968,-2.7993,-2.8013,-2.8025,-2.8038,-2.8059,-2.8085,-2.8075,-2.8086,-2.8083,-2.81,-2.8138,-2.8087,-2.8087,-2.8097,-2.8183,-2.8193,-2.82,-2.8133,-2.8134,-2.8135,-2.8183,0,-2.7943,-2.7988,-2.7988,-2.8029,-2.805,-2.804,-2.8062,-2.8073,-2.8077,-2.8095,-2.8098,-2.8118,-2.8103,-2.8109,-2.8126,-2.813,-2.8156,-2.8126,-2.8152,-2.8153,-2.8151,-2.8208,-2.8218,-2.8263,-2.8189,-2.819,-2.819,0,-2.8001,-2.8018,-2.8061,-2.8075,-2.8084,-2.8104,-2.8122,-2.8139,-2.8152,-2.8154,-2.8166,-2.8161,-2.8185,-2.8164,-2.8199,-2.8179,-2.8189,-2.8193,-2.8195,-2.8198,-2.8175,-2.8214,-2.8277,-2.8285,-2.82,-2.8199,-2.8198,0,-2.8038,-2.8071,-2.8102,-2.8111,-2.8127,-2.8141,-2.8149,-2.816,-2.8173,-2.8188,-2.8196,-2.8214,-2.8224,-2.8238,-2.8238,-2.8223,-2.8273,-2.8252,-2.8276,-2.8276,-2.8288,-2.8287,-2.8354,-2.8292,-2.8292,-2.8292,-2.8292,0,-2.8088,-2.8116,-2.812,-2.8139,-2.8169,-2.8168,-2.8198,-2.8204,-2.8215,-2.8235,-2.8227,-2.8245,-2.8243,-2.8262,-2.8261,-2.8291,-2.8295,-2.8297,-2.8297,-2.8298,-2.8298,-2.8306,-2.8303,-2.8294,-2.8293,-2.8293,-2.8292,0,-2.8136,-2.8139,-2.8173,-2.8186,-2.819,-2.8212,-2.8223,-2.8241,-2.8244,-2.8269,-2.8275,-2.828,-2.8301,-2.8302,-2.8327,-2.8326,-2.8363,-2.8358,-2.8359,-2.8358,-2.8383,-2.8381,-2.8458,-2.8469,-2.8398,-2.8399,-2.8399,0,-2.8168,-2.8189,-2.8205,-2.8219,-2.8228,-2.8249,-2.8262,-2.8261,-2.8275,-2.8292,-2.8308,-2.8329,-2.8346,-2.8381,-2.8386,-2.8405,-2.8401,-2.8427,-2.8404,-2.8406,-2.8404,-2.8403,-2.8406,-2.8432,-2.8433,-2.8433,-2.8434,0,-2.8226,-2.8227,-2.8247,-2.8267,-2.8283,-2.8299,-2.8314,-2.8325,-2.8326,-2.8341,-2.8364,-2.8378,-2.8403,-2.8424,-2.8443,-2.8449,-2.8442,-2.8441,-2.8448,-2.845,-2.8451,-2.8452,-2.8373,-2.844,-2.8439,-2.8439,-2.8438,-2.8438,-2.8268,-2.8287,-2.8302,-2.8324,-2.8335,-2.8349,-2.8368,-2.8373,-2.8393,-2.8415,-2.8413,-2.8438,-2.8451,-2.8475,-2.8483,-2.8503,-2.8494,-2.8503,-2.8506,-2.8509,-2.8512,-2.8447,-2.8506,-2.8506,-2.8506,-2.8506,-2.8505,0,-2.8326,-2.8336,-2.8356,-2.8378,-2.8396,-2.8388,-2.8404,-2.8419,-2.8442,-2.8455,-2.8472,-2.8499,-2.8519,-2.8527,-2.8547,-2.8561,-2.8558,-2.8566,-2.8566,-2.8568,-2.8518,-2.8511,-2.8568,-2.8568,-2.8568,-2.8568,-2.8568,-2.8568,-2.8359,-2.8392,-2.8394,-2.8432,-2.8441,-2.8467,-2.8477,-2.849,-2.8501,-2.8531,-2.8549,-2.8553,-2.8564,-2.8585,-2.8604,-2.8605,-2.8614,-2.8624,-2.8624,-2.8577,-2.8571,-2.8565,-2.8559,-2.8625,-2.8625,-2.8672,-2.8673,-2.8673]}]]